N4WNX-4 Weather Reports


Display with metric or nautical units.
time (UTC)temp
F
wind
direction
speed
MPH
gust
MPH
rain 1hr
in
rain 24hr
in
rain mn
in
humidity
%
barometer
mb
20260906101438 74 0 0.0 0.0 0.00 0.00 0.00 88 1013.6
20260906100538 74 0 0.0 0.0 0.00 0.00 0.00 87 1013.7
20260906095637 74 0 0.0 0.0 0.00 0.00 0.00 87 1013.5
20260906094945 74 0 0.0 0.0 0.00 0.00 0.00 87 1013.6
20260906093837 74 0 0.0 0.0 0.00 0.00 0.00 87 1013.5
20260906092937 74 338 0.0 2.0 0.00 0.00 0.00 87 1013.4
20260906092037 74 322 1.0 4.0 0.00 0.00 0.00 87 1013.5
20260906091137 74 273 0.0 1.0 0.00 0.00 0.00 87 1013.6
20260906090237 74 269 0.0 2.0 0.00 0.00 0.00 87 1013.5
20260906085338 75 267 1.0 2.0 0.00 0.00 0.00 86 1013.1
20260906084438 75 267 0.0 1.0 0.00 0.00 0.00 87 1013.2
20260906083745 75 267 0.0 1.0 0.00 0.00 0.00 87 1013.3
20260906082638 75 267 0.0 1.0 0.00 0.00 0.00 86 1013.1
20260906081738 75 0 0.0 0.0 0.00 0.00 0.00 86 1013.1
20260906080837 75 0 0.0 0.0 0.00 0.00 0.00 86 1012.9
20260906075937 75 0 0.0 0.0 0.00 0.00 0.00 85 1012.9
20260906075037 75 0 0.0 0.0 0.00 0.00 0.00 85 1012.8
20260906074137 76 268 0.0 1.0 0.00 0.00 0.00 85 1012.7
20260906073237 76 271 0.0 1.0 0.00 0.00 0.00 85 1012.7
20260906072337 76 264 0.0 2.0 0.00 0.00 0.00 85 1012.8
20260906071437 76 257 1.0 3.0 0.00 0.00 0.00 84 1013.0
20260906070537 76 327 1.0 3.0 0.00 0.00 0.00 84 1013.1
20260906065638 76 319 1.0 3.0 0.00 0.00 0.00 84 1013.1
20260906064737 76 293 1.0 4.0 0.00 0.00 0.00 83 1012.9
20260906063837 76 322 0.0 2.0 0.00 0.00 0.00 83 1013.0
20260906062938 76 327 0.0 2.0 0.00 0.00 0.00 83 1013.1
20260906062037 77 0 0.0 0.0 0.00 0.00 0.00 82 1013.2
20260906061345 77 327 0.0 1.0 0.00 0.00 0.00 82 1013.4
20260906060237 77 327 0.0 1.0 0.00 0.00 0.00 82 1013.5
20260906055337 77 327 0.0 1.0 0.00 0.00 0.00 82 1013.6
20260906054438 77 327 0.0 1.0 0.00 0.00 0.00 82 1013.8
20260906053538 78 0 0.0 0.0 0.00 0.00 0.00 81 1013.7
20260906052637 78 327 1.0 2.0 0.00 0.00 0.00 81 1014.0
20260906051737 78 321 1.0 2.0 0.00 0.00 0.00 80 1013.8
20260906050837 78 316 0.0 1.0 0.00 0.00 0.00 80 1013.9
20260906045937 78 316 0.0 1.0 0.00 0.00 0.00 79 1013.9
20260906045037 78 316 0.0 1.0 0.00 0.00 0.00 79 1014.1
20260906044345 78 316 0.0 1.0 0.00 0.00 0.00 79 1014.3
20260906043237 78 316 0.0 1.0 0.00 0.00 0.00 79 1014.3
20260906042337 79 0 0.0 0.0 0.00 0.00 0.00 78 1014.1
20260906041645 79 0 0.0 0.0 0.00 0.00 0.00 78 1014.1
20260906040745 79 0 0.0 0.0 0.00 0.00 0.00 78 1014.3
20260906035637 79 0 0.0 0.0 0.00 0.00 0.00 77 1013.9
20260906034945 79 319 0.0 1.0 0.00 0.00 0.00 77 1013.9
20260906033837 79 319 0.0 1.0 0.00 0.00 0.00 77 1013.8
20260906032937 79 318 0.0 1.0 0.00 0.00 0.00 76 1014.0
20260906032037 80 321 1.0 3.0 0.00 0.00 0.00 76 1013.9
20260906031138 80 321 1.0 3.0 0.00 0.00 0.00 76 1014.2
20260906030237 80 319 0.0 1.0 0.00 0.00 0.00 75 1014.2
20260906025338 80 320 0.0 2.0 0.00 0.00 0.00 75 1014.3
20260906024437 80 331 1.0 2.0 0.00 0.00 0.00 75 1014.5
20260906023538 81 341 0.0 2.0 0.00 0.00 0.00 75 1014.3
20260906022845 81 341 0.0 2.0 0.00 0.00 0.00 75 1014.3
20260906021737 81 337 1.0 3.0 0.00 0.00 0.00 75 1014.6
20260906020838 81 326 0.0 2.0 0.00 0.00 0.00 75 1014.4
20260906020145 81 326 0.0 1.0 0.00 0.00 0.00 74 1014.3
20260906015037 81 315 2.0 7.0 0.00 0.00 0.00 74 1014.4
20260906014137 81 297 2.0 7.0 0.00 0.00 0.00 73 1014.3
20260906013237 82 332 1.0 3.0 0.00 0.00 0.00 72 1014.1
20260906012545 82 333 0.0 1.0 0.00 0.00 0.00 70 1013.9
20260906011437 83 0 0.0 0.0 0.00 0.00 0.00 70 1013.7
20260906010537 84 0 0.0 0.0 0.00 0.00 0.00 67 1013.5
20260906005637 84 333 0.0 1.0 0.00 0.00 0.00 65 1013.4
20260906004737 85 333 1.0 2.0 0.00 0.00 0.00 63 1013.0
20260906003837 85 333 0.0 1.0 0.00 0.00 0.00 61 1012.9
20260906002937 85 330 1.0 3.0 0.00 0.00 0.00 61 1012.8
20260906002037 86 326 0.0 2.0 0.00 0.00 0.00 59 1012.5
20260906001137 87 326 0.0 2.0 0.00 0.00 0.00 57 1012.6
20260906000445 88 324 1.0 6.0 0.00 0.00 0.00 56 1012.7
20260905235338 89 162 1.0 3.0 0.00 0.00 0.00 58 1012.9
20260905234437 90 47 2.0 4.0 0.00 0.00 0.00 59 1013.0
20260905233537 91 29 1.0 4.0 0.00 0.00 0.00 59 1013.3
20260905232638 93 125 0.0 2.0 0.00 0.00 0.00 55 1012.8
20260905231738 93 157 1.0 4.0 0.00 0.00 0.00 54 1012.8
20260905231045 94 161 1.0 5.0 0.00 0.00 0.00 55 1012.9
20260905225937 94 151 0.0 1.0 0.00 0.00 0.00 54 1012.6
20260905225038 95 149 0.0 5.0 0.00 0.00 0.00 53 1012.5
20260905224345 95 148 1.0 4.0 0.00 0.00 0.00 50 1012.4
20260905223237 95 152 2.0 5.0 0.00 0.00 0.00 49 1012.2
20260905222337 96 146 2.0 5.0 0.00 0.00 0.00 49 1012.1
20260905221437 96 150 2.0 6.0 0.00 0.00 0.00 48 1011.9
20260905220538 96 148 2.0 5.0 0.00 0.00 0.00 51 1011.9
20260905215637 96 136 3.0 7.0 0.00 0.00 0.00 50 1011.7
20260905214737 96 141 0.0 4.0 0.00 0.00 0.00 49 1011.7
20260905213837 96 110 0.0 1.0 0.00 0.00 0.00 51 1011.9
20260905212937 97 110 0.0 1.0 0.00 0.00 0.00 49 1012.1
20260905212037 97 110 0.0 1.0 0.00 0.00 0.00 50 1012.4
20260905211137 97 110 0.0 2.0 0.00 0.00 0.00 50 1012.3
20260905210237 98 142 1.0 5.0 0.00 0.00 0.00 50 1012.4
20260905205337 97 146 1.0 5.0 0.00 0.00 0.00 49 1012.3
20260905204437 97 144 2.0 5.0 0.00 0.00 0.00 49 1012.3
20260905203537 96 148 1.0 4.0 0.00 0.00 0.00 52 1012.4
20260905202638 95 148 0.0 1.0 0.00 0.00 0.00 53 1012.6
20260905201945 96 148 0.0 1.0 0.00 0.00 0.00 52 1012.6
20260905200837 96 162 0.0 2.0 0.00 0.00 0.00 52 1013.0
20260905195937 96 140 2.0 7.0 0.00 0.00 0.00 50 1013.0
20260905195037 97 360 1.0 3.0 0.00 0.00 0.00 50 1012.9
20260905194138 96 303 2.0 5.0 0.00 0.00 0.00 48 1013.1
20260905193445 96 130 2.0 7.0 0.00 0.00 0.00 50 1013.2
20260905192337 96 149 2.0 6.0 0.00 0.00 0.00 51 1013.2
20260905191645 96 160 1.0 4.0 0.00 0.00 0.00 51 1013.3
20260905190537 95 151 2.0 8.0 0.00 0.00 0.00 52 1013.5
20260905185638 95 132 3.0 10.0 0.00 0.00 0.00 54 1013.7
20260905184737 94 176 3.0 10.0 0.00 0.00 0.00 56 1013.9
20260905183837 94 52 1.0 6.0 0.00 0.00 0.00 56 1014.0
20260905182937 94 91 1.0 6.0 0.00 0.00 0.00 58 1014.2
20260905182038 93 158 4.0 7.0 0.00 0.00 0.00 58 1014.4
20260905181137 94 124 1.0 7.0 0.00 0.00 0.00 58 1014.5
20260905180445 94 18 1.0 3.0 0.00 0.00 0.00 61 1014.5
20260905175337 93 328 2.0 4.0 0.00 0.00 0.00 62 1014.7
20260905174437 92 114 1.0 8.0 0.00 0.00 0.00 60 1014.9
20260905173537 92 205 2.0 5.0 0.00 0.00 0.00 61 1015.0
20260905172637 92 342 2.0 6.0 0.00 0.00 0.00 63 1015.2
20260905171737 92 27 1.0 3.0 0.00 0.00 0.00 63 1015.3
20260905170838 91 45 2.0 6.0 0.00 0.00 0.00 64 1015.3
20260905170145 91 302 3.0 7.0 0.00 0.00 0.00 63 1015.4
20260905165037 91 276 1.0 3.0 0.00 0.00 0.00 66 1015.7
20260905164138 90 329 1.0 5.0 0.00 0.00 0.00 64 1015.8
20260905163237 90 312 1.0 5.0 0.00 0.00 0.00 66 1016.0
20260905162338 89 116 2.0 4.0 0.00 0.00 0.00 66 1016.1
20260905161437 89 339 1.0 3.0 0.00 0.00 0.00 68 1016.2
20260905160537 89 292 1.0 2.0 0.00 0.00 0.00 69 1016.4
20260905155637 88 124 1.0 3.0 0.00 0.00 0.00 73 1016.4
20260905154737 88 110 1.0 3.0 0.00 0.00 0.00 73 1016.6
20260905153837 87 11 0.0 3.0 0.00 0.00 0.00 75 1016.6
20260905153145 86 296 1.0 4.0 0.00 0.00 0.00 77 1016.6
20260905152037 86 113 1.0 4.0 0.00 0.00 0.00 77 1016.7
20260905151137 85 143 1.0 4.0 0.00 0.00 0.00 78 1016.8
20260905150237 84 191 0.0 2.0 0.00 0.00 0.00 82 1016.8
20260905145545 84 165 1.0 5.0 0.00 0.00 0.00 83 1016.8
20260905144437 83 137 2.0 4.0 0.00 0.00 0.00 82 1017.1
20260905143537 83 148 1.0 4.0 0.00 0.00 0.00 85 1017.0
20260905142637 82 157 1.0 4.0 0.00 0.00 0.00 87 1017.1
20260905141737 80 1 1.0 4.0 0.00 0.00 0.00 91 1017.1
20260905140838 79 321 1.0 4.0 0.00 0.00 0.00 91 1017.1
20260905135937 78 329 1.0 3.0 0.00 0.00 0.00 92 1017.2
20260905135037 78 173 0.0 3.0 0.00 0.00 0.00 94 1017.1
20260905134137 77 174 1.0 4.0 0.00 0.00 0.00 94 1017.1
20260905133237 76 168 2.0 5.0 0.00 0.00 0.00 95 1017.0
20260905132338 76 166 1.0 5.0 0.00 0.00 0.00 96 1017.2
20260905131437 76 169 1.0 4.0 0.00 0.00 0.00 96 1017.3
20260905130537 76 169 1.0 5.0 0.00 0.00 0.00 97 1017.3
20260905125845 76 165 0.0 4.0 0.00 0.00 0.00 97 1017.4
20260905124737 75 198 1.0 4.0 0.00 0.00 0.00 97 1017.2
20260905123837 75 299 1.0 2.0 0.00 0.00 0.00 97 1017.2
20260905122937 75 271 1.0 3.0 0.00 0.00 0.00 97 1017.2
20260905122037 75 259 1.0 2.0 0.00 0.00 0.00 97 1017.1
20260905121138 75 271 0.0 3.0 0.00 0.00 0.00 97 1017.2
20260905120237 75 303 1.0 3.0 0.00 0.00 0.00 97 1017.1
20260905115337 75 304 1.0 3.0 0.00 0.00 0.00 97 1017.0
20260905114437 75 304 0.0 2.0 0.00 0.00 0.00 97 1016.9
20260905113537 75 303 1.0 3.0 0.00 0.00 0.00 97 1016.7
20260905112638 75 301 0.0 2.0 0.00 0.00 0.00 97 1016.6
20260905111737 75 301 1.0 3.0 0.00 0.00 0.00 97 1016.5
20260905110837 75 300 1.0 2.0 0.00 0.00 0.00 97 1016.4
20260905105937 75 299 1.0 2.0 0.00 0.00 0.00 97 1016.2
20260905105037 75 299 0.0 2.0 0.00 0.00 0.00 97 1016.2
20260905104345 75 299 0.0 1.0 0.00 0.00 0.00 97 1016.2
20260905103238 75 251 1.0 3.0 0.00 0.00 0.00 97 1016.1
20260905102337 75 229 1.0 3.0 0.00 0.00 0.00 97 1016.1